Regional Weather Roundup
Issued by NWS Albany, NY

Home | Current Version | Previous Version | Text Only | Print | Product List | Glossary On
Versions: 1 2 3 4 5 6 7 8 9 10 11 12 13 14 15 16 17 18 19 20 21 22 23 24 25 26 27 28 29 30 31 32 33 34 35 36 37 38 39 40 41 42 43 44 45 46 47 48 49 50
000
ASUS41 KALY 261610
RWRALY

NEW YORK STATE HOURLY WEATHER ROUNDUP
NATIONAL WEATHER SERVICE ALBANY NY
1200 PM EDT SUN APR 26 2015

NOTE: "FAIR" INDICATES FEW OR NO CLOUDS BELOW 12,000 FEET WITH NO
SIGNIFICANT WEATHER AND/OR NO OBSTRUCTIONS TO VISIBILITY.

NYZ032-033-038>043-046>054-057>066-NYZ062>081-261700-
EAST


CITY           SKY/WX    TMP DP  RH WIND       PRES   REMARKS
ALBANY         CLOUDY    55  29  36 NW12G18   29.71F
GLENS FALLS    CLOUDY    53  28  38 CALM      29.69F
POUGHKEEPSIE   PTSUNNY   56  30  37 MISG      29.68F
NEWBURGH       PTSUNNY   54  34  47 CALM      29.70F
MONTGOMERY     PTSUNNY   58  31  35 NE6       29.69F
WHITE PLAINS   PTSUNNY   56  28  34 NE9       29.67F
ISLIP          MOSUNNY   57  31  37 NW12      29.67F
NEW YORK CITY  MOSUNNY   56  30  37 CALM      29.69F
CENTRAL PARK   SUNNY     59  25  27 VRB3      29.72F
$$

NYZ005>009-017-018-044>046-055-056-261700-
CENTRAL


CITY           SKY/WX    TMP DP  RH WIND       PRES   REMARKS
FULTON         MOSUNNY   49  33  54 NW15G23   29.79S
SYRACUSE       MOSUNNY   52  32  46 NW10G20   29.77S
ROME           CLOUDY    49  32  52 NW8       29.75F
ELMIRA         CLOUDY    51  28  41 NW13      29.76F
BINGHAMTON     CLOUDY    46  27  47 N12       29.72S
MONTICELLO     CLOUDY    50  28  43 W9        29.70F
$$

NYZ026>034-041>043-261700-
NORTH


CITY           SKY/WX    TMP DP  RH WIND       PRES   REMARKS
WATERTOWN      CLOUDY    49  33  54 W8        29.77F
FORT DRUM      NOT AVBL
MASSENA        PTSUNNY   48  33  56 NW10      29.77F
SARANAC LAKE   CLOUDY    43  29  57 VRB7      29.68S
PLATTSBURGH    CLOUDY    47  34  60 SE8       29.72S
$$

NYZ001>004-010>016-019>021-261700-
WEST


CITY           SKY/WX    TMP DP  RH WIND       PRES   REMARKS
NIAGARA FALLS  MOSUNNY   48  33  56 NW12      29.83F
BUFFALO        PTSUNNY   49  32  52 NW8       29.82F
DUNKIRK        MOSUNNY   45  32  60 N7        29.85S
JAMESTOWN      CLOUDY    46  23  39 N9G16     29.80S
WELLSVILLE     CLOUDY    47  24  40 NW7G20    29.77F
ROCHESTER      PTSUNNY   48  32  53 W6        29.81F
PENN YAN       CLOUDY    47  33  58 NW9       29.79S
$$

             KEY
       WCI = WIND CHILL INDEX
       VSB = VISIBILITY
       HX  = HEAT INDEX
$$


USA.gov is the U.S. government's official web portal to all federal, state and local government web resources and services.